TimeCST,TemperatureF,Dew PointF,Humidity,Sea Level PressureIn,VisibilityMPH,Wind Direction,Wind SpeedMPH,Gust SpeedMPH,PrecipitationIn,Events,Conditions,WindDirDegrees,DateUTC
12:56 AM,37.9,35.1,89,29.97,9.0,NE,15.0,-,N/A,,Overcast,50,2012-11-09 06:56:00
1:56 AM,37.9,35.1,89,29.95,9.0,NE,13.8,-,N/A,,Overcast,40,2012-11-09 07:56:00
2:56 AM,37.9,35.1,89,29.96,8.0,NE,12.7,-,N/A,,Overcast,40,2012-11-09 08:56:00
3:56 AM,37.0,35.1,93,29.96,6.0,NE,11.5,-,N/A,,Overcast,40,2012-11-09 09:56:00
4:56 AM,37.0,35.1,93,29.97,5.0,NNE,11.5,-,N/A,,Overcast,30,2012-11-09 10:56:00
5:56 AM,37.0,34.0,89,29.97,6.0,NE,9.2,-,N/A,,Overcast,50,2012-11-09 11:56:00
6:56 AM,37.0,34.0,89,29.98,6.0,NE,13.8,-,N/A,,Overcast,50,2012-11-09 12:56:00
7:56 AM,36.0,34.0,93,29.98,5.0,NE,15.0,-,N/A,,Overcast,50,2012-11-09 13:56:00
8:33 AM,35.6,33.8,93,29.93,4.0,ENE,13.8,-,N/A,,Overcast,60,2012-11-09 14:33:00
8:56 AM,37.0,35.1,93,29.97,4.0,ENE,15.0,-,N/A,,Overcast,60,2012-11-09 14:56:00
9:45 AM,37.4,35.6,93,29.91,4.0,ENE,16.1,-,N/A,,Overcast,70,2012-11-09 15:45:00
9:53 AM,37.4,35.6,93,29.91,4.0,ENE,11.5,20.7,N/A,,Overcast,60,2012-11-09 15:53:00
9:56 AM,39.0,36.0,89,29.95,4.0,ENE,13.8,-,N/A,,Overcast,60,2012-11-09 15:56:00
10:56 AM,42.1,37.0,82,29.94,7.0,East,12.7,-,N/A,,Overcast,80,2012-11-09 16:56:00
11:22 AM,44.6,37.4,76,29.89,10.0,ENE,15.0,-,N/A,,Mostly Cloudy,70,2012-11-09 17:22:00
11:29 AM,44.6,37.4,76,29.89,10.0,ENE,15.0,-,N/A,,Scattered Clouds,70,2012-11-09 17:29:00
11:56 AM,44.1,37.0,76,29.89,10.0,East,15.0,-,N/A,,Clear,80,2012-11-09 17:56:00
12:56 PM,48.9,37.9,66,29.86,10.0,East,12.7,-,N/A,,Clear,80,2012-11-09 18:56:00
1:56 PM,51.1,39.0,63,29.84,10.0,ESE,16.1,-,N/A,,Clear,120,2012-11-09 19:56:00
2:56 PM,51.1,39.9,66,29.82,10.0,East,12.7,-,N/A,,Clear,100,2012-11-09 20:56:00
3:56 PM,52.0,41.0,66,29.81,10.0,East,12.7,-,N/A,,Mostly Cloudy,90,2012-11-09 21:56:00
4:56 PM,53.1,42.1,66,29.80,10.0,East,11.5,-,N/A,,Overcast,90,2012-11-09 22:56:00
5:56 PM,53.1,42.1,66,29.80,10.0,East,12.7,-,N/A,,Overcast,100,2012-11-09 23:56:00
6:56 PM,52.0,41.0,66,29.81,10.0,ESE,15.0,-,N/A,,Overcast,110,2012-11-10 00:56:00
7:56 PM,52.0,42.1,69,29.79,10.0,ESE,17.3,-,N/A,,Overcast,110,2012-11-10 01:56:00
8:56 PM,50.0,42.1,74,29.79,10.0,East,15.0,-,N/A,,Mostly Cloudy,100,2012-11-10 02:56:00
9:56 PM,50.0,42.1,74,29.77,10.0,East,16.1,-,N/A,,Overcast,100,2012-11-10 03:56:00
10:56 PM,50.0,43.0,77,29.73,10.0,East,12.7,-,N/A,,Overcast,90,2012-11-10 04:56:00
11:46 PM,50.0,42.8,76,29.68,10.0,East,16.1,-,N/A,,Overcast,100,2012-11-10 05:46:00
11:56 PM,50.0,43.0,77,29.70,10.0,East,15.0,-,N/A,,Overcast,90,2012-11-10 05:56:00